DW0542 Weather Reports


Display with metric or nautical units.
time (UTC)temp
F
wind
direction
speed
MPH
gust
MPH
rain 1hr
in
rain 24hr
in
rain mn
in
humidity
%
barometer
mb
20260504021539 39 274 0.0 0.0 0.00 0.00 0.00 66 1011.0
20260504020104 39 274 0.0 0.0 0.00 0.00 0.00 67 1010.9
20260504014518 40 274 0.0 0.0 0.00 0.00 0.00 68 1010.8
20260504013028 41 274 0.0 0.0 0.00 0.00 0.00 63 1010.6
20260504011548 42 274 0.0 0.0 0.00 0.00 0.00 61 1010.4
20260504010143 44 274 0.0 0.0 0.00 0.00 0.00 59 1010.2
20260504004600 47 274 0.0 0.0 0.00 0.00 0.00 54 1010.0
20260504003034 49 274 0.0 0.0 0.00 0.00 0.00 47 1009.9
20260504001529 50 274 0.0 0.0 0.00 0.00 0.00 49 1009.6
20260504000027 51 278 2.0 8.0 0.00 0.00 0.00 47 1009.4
20260503234526 51 304 5.0 12.0 0.00 0.00 0.00 48 1009.4
20260503233023 51 276 7.0 14.0 0.00 0.00 0.00 47 1009.3
20260503231520 52 284 6.0 13.0 0.00 0.00 0.00 46 1009.2
20260503230019 51 297 10.0 17.0 0.00 0.00 0.00 46 1009.1
20260503224517 52 259 13.0 20.0 0.00 0.00 0.00 44 1008.9
20260503223014 52 318 12.0 20.0 0.00 0.00 0.00 48 1008.7
20260503221511 51 300 13.0 19.0 0.00 0.00 0.00 46 1008.7
20260503220010 51 325 14.0 20.0 0.00 0.00 0.00 50 1008.4
20260503214503 51 300 16.0 24.0 0.00 0.00 0.00 47 1008.3
20260503213002 51 301 16.0 25.0 0.00 0.00 0.00 47 1008.1
20260503211600 51 289 15.0 25.0 0.00 0.00 0.00 45 1007.9
20260503210100 51 311 18.0 25.0 0.00 0.00 0.00 45 1007.8
20260503204557 51 303 12.0 25.0 0.00 0.00 0.00 48 1007.7
20260503203113 51 301 16.0 23.0 0.00 0.06 0.00 48 1007.6
20260503201555 51 251 12.0 21.0 0.00 0.06 0.00 50 1007.5
20260503200054 51 332 11.0 22.0 0.00 0.06 0.00 49 1007.3
20260503194551 51 282 10.0 24.0 0.00 0.06 0.00 47 1007.3
20260503193052 51 324 19.0 26.0 0.00 0.06 0.00 52 1007.2
20260503191552 51 293 15.0 21.0 0.00 0.06 0.00 53 1007.3
20260503190057 51 310 15.0 25.0 0.00 0.06 0.00 49 1007.3
20260503183045 50 306 15.0 24.0 0.00 0.06 0.00 50 1007.2
20260503181551 50 284 12.0 24.0 0.00 0.06 0.00 53 1007.3
20260503180051 50 298 18.0 24.0 0.00 0.06 0.00 51 1007.2
20260503174539 50 286 14.0 24.0 0.00 0.06 0.00 52 1007.2
20260503173039 50 292 16.0 24.0 0.00 0.06 0.00 52 1007.0
20260503171538 50 288 13.0 21.0 0.00 0.06 0.00 53 1007.1
20260503081531 44 303 8.0 14.0 0.00 0.13 0.00 64 1008.5
20260503071504 45 311 9.0 13.0 0.00 0.13 0.00 63 1008.9
20260503054525 46 305 6.0 12.0 0.00 0.13 0.00 60 1009.9
20260503053022 47 318 4.0 10.0 0.00 0.13 0.00 58 1010.0
20260503051514 47 315 5.0 11.0 0.00 0.13 0.00 59 1010.2
20260503050008 48 307 5.0 12.0 0.00 0.13 0.00 55 1010.4
20260503044508 48 315 7.0 11.0 0.00 0.13 0.00 56 1010.6
20260503043006 48 321 6.0 11.0 0.00 0.13 0.00 58 1010.7
20260503041604 48 313 6.0 12.0 0.00 0.13 0.00 57 1010.7
20260503040106 48 315 6.0 11.0 0.00 0.13 0.00 57 1011.1
20260503034555 48 293 7.0 11.0 0.00 0.13 0.00 56 1011.0
20260503033105 48 320 5.0 11.0 0.00 0.13 0.00 57 1010.9
20260503031551 49 326 3.0 11.0 0.00 0.13 0.00 56 1010.8
20260503030049 49 349 2.0 10.0 0.00 0.13 0.00 59 1011.0
20260503024546 49 322 3.0 12.0 0.00 0.13 0.00 58 1011.1
20260503023044 50 349 4.0 11.0 0.00 0.13 0.00 61 1010.9